Location: Central Coast NSW, Australia
(33.2407°S, 151.4316°E)
Time: 15:30:24
(UTC+10:00)

ISS - Visible Passes

Search period start: 25 May 2018 00:00
Search period end: 04 June 2018 00:00
Orbit: 402 x 407 km, 51.6° (Epoch: 25 May)

Date Brightness Start Highest point End Pass type
(mag) Time Alt. Az. Time Alt. Az. Time Alt. Az.
25 May -0.9 05:56:43 10° N 05:59:19 22° NE 06:01:58 10° ESE visible
26 May -0.2 05:06:48 10° NE 05:07:20 10° NE 05:07:52 10° ENE visible
27 May -3.4 05:47:57 10° NW 05:51:13 66° NE 05:54:33 10° SE visible
28 May -1.8 04:57:27 19° N 04:59:06 29° NE 05:02:02 10° ESE visible
29 May -3.3 05:41:39 24° W 05:43:14 41° SW 05:46:26 10° SSE visible
30 May -2.0 04:52:37 27° SE 04:52:37 27° SE 04:54:19 10° SE visible
31 May -2.0 05:35:58 18° SSW 05:35:58 18° SSW 05:37:48 10° SSE visible
